Lapse_Rate
7.3 7.3 7.2 7.2 7.1 7.1 7.1 7.2 7.1 7.1 7.1 7.2 7.3 7.3 7.3 7.4 7.4 7.4 7.4 7.4 7.4 7.5 7.5 7.4 7.3 7.1 7.2 7.4 7.3 7.5 7.5 7.7 7.7 7.8 7.9 7.7 7.7 7.7 7.6 7.4 7.5 7.5 7.6 7.6 7.7
7.3 7.3 7.2 7.3 7.3 7.2 7.2 7.1 7.1 7.1 7.1 7.1 7.2 7.4 7.5 7.5 7.5 7.6 7.6 7.6 7.6 7.6 7.7 7.6 7.4 7.2 7.2 7.4 7.4 7.3 7.6 7.9 8.1 8.1 8.2 8.2 8.1 7.9 8.0 7.9 8.2 7.8 7.9 8.1 8.0
7.3 7.3 7.3 7.3 7.2 7.1 7.1 7.2 7.2 7.1 7.1 7.2 7.1 7.1 7.3 7.4 7.5 7.6 7.7 7.8 7.8 7.7 7.7 7.7 7.5 7.4 7.2 7.4 7.7 7.7 7.9 8.2 8.1 8.1 8.3 8.4 8.3 8.3 8.2 8.3 8.2 8.1 8.1 8.1 8.3
7.2 7.3 7.4 7.3 7.3 7.3 7.3 7.3 7.3 7.2 7.2 7.2 7.2 7.1 7.1 7.3 7.4 7.5 7.7 7.8 7.9 7.9 7.7 7.7 7.6 7.5 7.4 7.5 7.9 8.1 8.0 8.3 8.1 8.2 8.4 8.5 8.5 8.5 8.5 8.5 8.4 8.1 8.2 8.3 8.4
7.0 7.2 7.3 7.4 7.4 7.4 7.5 7.5 7.4 7.4 7.3 7.3 7.3 7.2 7.1 7.1 7.3 7.4 7.6 7.8 7.8 8.0 7.9 7.7 7.7 7.6 7.7 7.8 7.9 8.3 8.2 8.3 8.0 8.2 8.2 8.3 8.4 8.4 8.7 8.8 8.7 8.4 8.5 8.5 8.4
7.0 7.0 7.2 7.4 7.4 7.4 7.5 7.5 7.5 7.5 7.4 7.4 7.4 7.3 7.2 7.2 7.2 7.3 7.4 7.6 7.7 7.9 7.9 7.8 7.8 7.8 7.8 7.9 8.0 8.2 8.3 8.3 8.3 8.1 8.2 8.2 8.4 8.5 8.8 8.9 8.9 8.7 8.7 8.6 8.6
6.9 7.0 7.1 7.2 7.3 7.4 7.6 7.6 7.6 7.6 7.5 7.4 7.4 7.4 7.3 7.3 7.3 7.3 7.4 7.4 7.5 7.6 7.8 7.9 7.8 7.8 7.9 7.9 8.1 8.2 8.2 8.2 8.1 8.2 8.1 8.1 8.3 8.1 8.3 8.7 8.8 8.9 8.7 8.6 8.6
6.9 7.0 7.0 7.0 7.2 7.3 7.5 7.5 7.5 7.6 7.6 7.6 7.5 7.5 7.4 7.3 7.3 7.2 7.2 7.3 7.4 7.5 7.7 7.8 7.8 7.7 7.6 7.9 7.9 8.0 8.2 8.0 8.0 8.0 8.1 8.1 8.3 8.2 8.3 8.5 8.7 9.0 8.7 8.5 8.5
6.9 7.0 7.0 7.0 7.1 7.2 7.4 7.5 7.6 7.7 7.7 7.7 7.6 7.6 7.5 7.5 7.4 7.4 7.3 7.3 7.4 7.5 7.7 7.7 7.6 7.5 7.5 7.7 7.7 7.8 7.9 7.8 8.0 8.1 8.1 8.0 8.4 8.5 8.5 8.5 9.0 9.1 8.6 8.4 8.3
6.9 7.0 7.1 7.1 7.1 7.2 7.4 7.5 7.7 7.7 7.8 7.8 7.8 7.7 7.7 7.7 7.6 7.5 7.5 7.4 7.5 7.6 7.7 7.7 7.6 7.6 7.6 7.5 7.6 7.6 7.6 7.8 8.0 7.8 8.0 8.1 8.3 8.6 8.6 8.6 8.6 9.1 8.5 8.1 8.2
7.0 6.9 7.0 7.2 7.2 7.2 7.4 7.4 7.6 7.6 7.8 7.9 8.0 7.8 7.9 7.8 7.7 7.8 7.6 7.5 7.5 7.6 7.7 7.6 7.8 7.8 7.4 7.4 7.3 7.5 7.5 7.7 8.0 7.8 7.9 8.1 8.4 8.6 8.7 8.6 8.5 8.7 8.5 7.9 8.0
7.1 7.0 6.9 7.0 7.2 7.3 7.4 7.4 7.5 7.6 7.9 8.0 8.0 8.0 7.9 7.9 7.8 7.7 7.7 7.7 7.6 7.7 7.7 7.6 7.8 7.4 7.4 7.4 7.4 7.5 7.7 7.9 8.0 7.8 7.9 8.0 8.3 8.6 8.6 8.8 8.4 8.5 8.1 7.6 7.5
7.2 7.2 6.9 6.9 7.0 7.2 7.4 7.3 7.4 7.5 7.8 8.0 8.2 8.2 7.9 7.8 7.7 7.7 7.7 7.7 7.5 7.6 7.6 7.4 7.6 7.8 7.3 7.3 7.3 7.4 7.6 7.5 7.5 7.8 7.9 8.0 8.3 8.5 8.6 8.7 8.6 8.7 7.8 7.6 7.2
7.3 7.2 7.0 6.9 6.9 7.1 7.3 7.1 7.1 7.5 7.9 8.0 8.2 8.3 7.9 7.8 7.6 7.6 7.6 7.5 7.6 7.6 7.4 7.5 7.5 7.6 7.3 7.4 7.5 7.5 7.4 7.6 7.7 7.8 8.1 8.0 8.5 8.6 8.6 8.7 8.4 8.4 8.0 7.7 7.3
7.3 7.3 7.1 6.9 7.0 7.2 7.1 6.9 7.1 7.3 7.6 7.9 7.8 8.0 8.1 7.9 8.0 7.9 7.6 7.3 7.5 7.6 7.5 7.4 7.5 7.6 7.5 7.6 7.4 7.5 7.6 7.7 7.9 7.9 7.8 8.0 8.1 8.5 8.7 8.7 8.5 8.4 8.1 8.1 7.8
7.3 7.3 7.2 7.1 7.2 7.2 7.0 6.9 7.0 7.1 7.1 7.4 7.5 7.7 7.9 7.7 7.9 7.7 7.4 7.2 7.3 7.3 7.3 7.6 7.8 7.6 7.7 7.6 7.4 7.6 7.7 7.7 7.9 7.9 8.1 8.0 7.9 8.3 8.4 8.6 8.3 8.3 8.5 8.3 7.8
7.0 7.2 7.2 7.2 7.3 7.3 7.0 6.9 6.8 6.6 7.5 7.3 7.4 7.6 7.7 7.7 7.5 7.6 7.7 7.6 7.6 7.4 7.3 7.9 8.0 7.9 7.8 7.8 7.7 7.7 7.7 8.1 8.2 8.2 8.6 7.8 7.5 8.4 8.4 8.5 8.4 8.2 8.4 8.4 8.1
6.9 7.1 7.0 7.2 7.2 7.1 7.0 6.9 6.4 7.1 7.5 7.3 7.4 7.5 7.7 7.7 7.5 7.6 7.8 7.7 7.6 7.6 7.7 7.7 8.1 8.0 7.9 7.8 7.9 8.0 7.9 8.3 8.1 8.3 8.5 7.8 8.0 8.5 8.4 8.4 8.3 8.3 8.4 8.2 8.2
6.6 6.9 7.0 7.1 7.1 7.0 7.1 6.8 7.2 7.3 7.4 7.5 7.4 7.5 7.7 7.7 7.7 7.5 7.5 7.7 7.9 7.9 7.7 8.0 7.9 7.8 7.8 7.6 7.6 7.7 7.9 8.4 8.2 7.7 7.9 8.2 8.5 8.6 8.5 8.4 8.3 8.5 8.5 8.4 8.2
6.4 6.6 6.9 6.9 7.0 7.0 6.8 7.1 7.1 7.2 7.4 7.5 7.5 7.5 7.5 7.5 7.6 7.6 7.5 7.8 7.8 7.8 7.9 7.8 7.7 7.8 7.8 7.7 7.6 7.8 8.2 8.4 8.4 8.3 8.5 8.2 8.3 8.7 8.7 8.7 8.9 8.9 8.6 8.4 8.3
6.2 6.5 6.5 6.6 6.7 6.7 6.6 6.8 6.7 6.9 7.1 7.4 7.2 7.2 7.2 7.3 7.5 7.6 7.7 7.7 7.8 8.0 7.9 7.7 7.7 8.0 7.8 7.9 7.9 8.1 8.3 8.4 8.4 8.5 9.2 9.0 9.0 8.9 8.9 8.9 9.1 8.8 8.5 8.6 8.4
6.1 6.3 6.3 6.3 6.4 6.4 6.3 6.2 6.4 6.6 6.8 6.9 6.9 6.8 6.8 7.1 7.2 7.4 7.6 7.8 8.0 7.9 8.1 8.2 7.9 7.9 8.5 8.2 8.1 8.2 8.2 8.2 8.8 8.2 8.3 8.4 8.9 9.1 8.9 9.0 9.2 9.0 8.9 8.7 8.3
5.9 5.9 5.9 6.0 6.0 6.1 6.0 6.0 6.1 6.3 6.4 6.5 6.5 6.5 6.6 6.9 7.2 7.5 7.5 7.6 7.9 8.0 8.0 8.2 8.1 8.3 8.6 8.3 8.3 8.4 8.5 8.7 8.8 8.8 8.6 8.9 9.0 9.2 9.0 9.1 9.3 9.3 8.8 8.7 8.4
5.7 5.4 5.4 5.5 5.5 5.7 5.6 5.6 5.6 5.8 5.9 6.0 6.1 6.4 6.6 6.7 6.9 7.2 7.6 7.6 7.8 7.9 8.1 8.2 8.4 8.7 9.0 9.2 9.3 8.9 8.9 9.1 9.0 8.9 8.9 8.8 9.0 9.1 9.3 9.5 9.5 9.2 8.8 8.6 8.3
5.7 5.5 5.3 5.0 5.1 5.3 5.2 5.3 5.5 5.5 5.7 6.0 6.1 6.3 6.6 6.7 6.8 7.1 7.3 7.4 7.8 7.9 8.1 8.2 8.4 8.6 8.7 8.8 8.8 9.0 9.0 9.0 9.2 9.3 9.3 9.0 8.9 9.1 9.1 9.3 9.5 9.1 8.8 8.6 8.4
5.6 5.5 5.3 5.2 5.2 5.1 5.0 5.2 5.4 5.5 5.8 5.9 6.0 6.1 6.4 6.5 6.6 6.9 7.1 7.4 7.5 7.8 7.8 8.2 8.3 8.5 8.6 8.9 9.1 8.8 9.1 8.9 8.9 9.1 9.3 9.3 9.1 9.1 8.9 9.2 9.2 9.3 8.8 8.5 8.4
5.6 5.6 5.4 5.2 5.2 5.1 5.0 5.1 5.3 5.3 5.3 5.4 5.7 5.8 5.9 6.1 6.3 6.5 6.8 7.3 7.4 7.7 7.9 8.1 8.4 8.6 8.4 8.3 8.6 8.3 9.0 9.1 9.0 9.1 9.1 9.1 9.2 9.1 9.2 9.1 9.3 9.1 8.5 8.4 8.4
Wind_Speed
16 15 14 14 14 13 13 14 15 15 15 13 12 10 10 11 10 3 5 3 4 4 4 5 3 2 1 2 2 1 2 3 2 2 4 2 2 4 6 7 3 5 3 4 16
16 16 16 16 15 15 14 14 14 15 15 15 12 11 10 10 2 6 6 4 5 7 4 3 4 2 1 2 2 2 2 4 2 3 6 5 3 5 6 7 4 5 6 14 18
17 16 16 17 15 16 15 14 15 14 14 13 12 11 9 8 3 2 3 8 9 5 3 2 4 2 1 0 1 1 1 2 3 10 8 9 6 4 4 6 9 10 13 17 18
17 17 17 17 17 17 17 16 16 15 13 11 10 8 7 3 1 2 4 10 8 3 3 3 3 2 2 1 1 3 3 3 3 3 5 8 3 3 10 9 2 9 18 20 19
18 18 18 17 17 18 19 18 17 15 13 10 8 6 3 2 3 5 11 12 7 3 2 3 3 1 2 3 2 3 2 5 8 11 10 8 10 7 9 13 5 9 17 19 19
19 19 19 19 19 19 19 18 17 15 12 8 5 2 3 2 2 5 10 7 6 3 3 2 2 2 1 1 3 4 8 10 6 5 3 4 0 4 1 5 9 15 16 17 18
20 20 21 20 20 21 21 21 18 15 9 5 3 2 2 3 3 7 5 3 5 2 3 1 2 3 3 3 4 5 6 3 6 6 3 3 4 8 3 4 8 13 14 16 12
22 22 23 23 23 22 21 21 15 6 3 5 3 2 4 4 4 4 2 3 2 1 2 2 3 2 2 4 3 3 0 6 3 8 2 3 9 1 4 8 10 12 13 13 10
23 25 25 25 25 24 23 20 1 5 7 6 3 2 2 1 3 5 3 3 4 2 1 1 2 2 1 1 2 3 6 3 5 4 5 2 11 3 5 7 9 10 11 9 9
24 25 26 27 26 26 25 4 5 3 2 2 2 2 2 2 4 5 4 7 3 5 2 2 2 1 2 3 4 4 1 2 4 1 6 8 13 3 5 9 11 10 9 7 7
25 27 28 28 28 25 8 2 2 2 1 3 1 2 3 2 5 4 4 5 3 2 4 2 4 6 4 4 4 2 2 5 5 4 4 4 10 7 3 8 7 7 6 6 6
26 28 29 30 30 23 2 5 4 2 6 4 8 6 5 2 3 4 8 5 3 5 3 2 6 4 3 4 2 2 3 5 9 1 3 5 9 5 4 6 6 7 8 7 7
27 28 29 31 32 3 4 7 2 7 3 4 4 4 4 8 4 10 12 5 5 6 7 4 3 8 5 4 6 4 4 2 4 8 1 3 4 3 1 5 6 6 6 8 8
27 27 28 36 1 4 1 2 4 5 3 2 3 3 5 5 5 6 12 6 3 11 6 5 3 5 3 3 6 2 6 5 8 4 4 3 4 4 2 9 5 9 11 10 10
27 27 24 12 5 2 3 8 3 2 1 1 3 3 2 7 9 5 6 3 9 7 5 2 6 6 5 3 7 3 2 4 4 3 3 2 4 2 3 4 3 8 12 14 12
28 27 22 2 2 5 9 9 3 1 4 2 3 3 7 4 2 4 9 3 3 5 1 4 1 3 4 4 7 1 2 2 2 1 5 1 3 3 3 1 4 0 11 15 13
31 28 9 2 1 9 9 2 2 4 3 2 2 2 3 7 4 5 13 12 7 5 5 3 6 3 5 5 4 5 2 2 3 3 3 2 3 6 4 2 2 5 9 14 12
33 20 3 4 4 10 2 2 3 2 3 3 2 1 3 4 5 4 12 11 5 3 3 1 2 4 5 9 4 9 7 4 3 2 1 1 4 1 1 6 4 8 10 13 12
24 1 1 2 4 3 2 3 4 4 3 4 1 2 2 2 3 7 7 9 9 11 6 4 3 2 5 3 8 4 5 2 4 1 3 1 4 6 2 4 2 7 11 12 11
3 2 3 8 4 1 2 2 2 2 3 1 0 1 2 2 4 9 8 2 5 13 7 4 4 2 1 5 4 4 8 3 1 4 4 2 4 4 4 8 7 12 13 10 9
1 2 6 3 2 1 4 4 3 4 3 2 1 1 2 2 2 3 5 2 2 4 8 6 5 2 2 5 5 3 4 2 1 2 3 2 3 5 3 7 10 8 8 8 7
2 2 3 4 2 1 3 3 2 1 1 2 1 1 2 3 1 2 2 1 2 5 8 6 3 5 6 1 1 2 2 5 4 4 0 3 4 3 5 7 9 9 10 9 9
2 1 1 3 2 2 1 1 1 0 1 1 1 2 2 1 1 1 1 1 2 4 5 8 4 3 3 3 3 5 5 4 4 2 6 5 5 3 4 6 5 11 11 11 12
0 2 2 3 1 1 2 1 3 1 1 2 1 1 2 2 2 2 1 1 5 1 1 9 4 5 7 2 2 4 6 8 4 4 5 7 7 7 7 8 9 10 13 15 13
3 2 2 3 1 2 0 0 2 2 2 3 3 4 1 1 1 2 0 4 1 1 3 4 4 5 11 9 8 4 8 10 7 5 4 4 7 8 5 4 12 10 13 16 14
2 1 1 2 1 1 2 1 2 0 1 2 3 5 2 3 1 1 7 1 2 3 2 1 1 2 4 3 10 11 13 11 7 5 5 4 8 5 3 4 11 10 12 13 14
2 0 2 2 1 2 3 3 2 2 1 0 4 3 1 1 7 11 9 10 6 4 3 1 2 3 5 2 4 5 13 13 8 8 5 7 3 3 1 6 11 12 12 13 14
Wind_Direction
15 10 12 6 4 351 345 349 335 337 334 334 330 333 331 336 313 235 247 214 149 216 118 136 83 17 352 53 18 151 105 99 136 216 322 185 229 157 140 134 198 176 127 129 136
13 6 3 360 359 345 344 340 334 335 329 327 328 331 335 344 296 257 249 186 237 161 124 108 108 104 62 50 35 358 87 182 198 242 299 307 254 157 175 155 188 167 108 137 141
8 5 0 355 351 341 334 335 327 329 324 324 324 332 335 330 270 304 353 183 170 163 109 105 105 86 90 37 123 228 161 155 271 249 272 295 266 201 214 210 204 197 160 152 162
6 1 357 348 344 337 332 329 324 322 321 317 317 326 327 283 147 5 74 133 146 160 106 100 71 90 71 102 66 261 258 221 291 304 268 278 262 226 218 252 202 208 162 162 180
3 357 350 345 338 333 327 325 317 317 312 306 304 326 312 278 276 2 119 126 117 119 107 114 95 88 57 327 313 229 317 288 284 291 272 267 259 245 242 246 211 152 164 175 190
357 353 345 342 335 328 320 318 315 313 301 286 276 321 263 237 7 142 126 127 132 133 155 122 59 95 75 310 310 328 296 302 314 314 255 267 311 187 318 242 175 162 172 185 192
354 350 343 339 332 329 322 322 319 309 287 246 205 232 253 265 354 147 132 104 153 158 154 142 52 13 330 335 334 308 314 355 30 352 4 256 256 228 320 187 160 169 170 195 179
351 348 341 335 329 326 325 320 317 337 140 149 148 206 252 347 145 161 120 96 100 150 47 19 41 82 348 320 314 336 60 317 35 346 58 277 304 30 173 169 176 174 177 192 172
349 344 338 333 327 326 327 322 354 99 121 138 175 241 249 146 178 187 184 156 127 179 11 355 70 60 130 354 277 20 271 327 333 351 338 299 302 62 179 169 188 192 196 174 160
347 341 335 331 327 329 328 278 113 129 126 186 247 266 206 188 161 150 174 168 137 132 126 62 65 196 110 209 251 228 310 309 278 343 317 290 279 311 190 207 204 194 200 163 138
346 340 335 330 326 329 341 218 336 160 154 234 138 281 293 3 143 166 172 159 112 112 187 44 222 226 247 196 120 68 316 286 271 295 279 298 297 327 223 233 222 209 189 152 111
345 340 335 329 326 323 277 80 93 330 305 257 249 265 267 320 136 151 166 159 149 177 141 179 252 227 147 160 198 210 270 276 285 273 272 330 303 283 233 240 231 221 186 172 145
344 341 336 329 323 356 352 113 343 169 268 291 202 200 212 181 209 183 181 146 161 170 191 220 26 126 139 163 188 209 236 272 300 325 114 310 276 285 222 252 224 211 146 163 168
342 340 337 329 352 341 133 342 321 183 330 245 211 190 162 187 196 173 180 156 166 210 166 247 178 208 160 226 195 200 204 268 300 301 298 316 306 270 274 275 233 210 178 153 177
338 337 334 341 310 263 4 324 138 185 283 91 131 104 131 194 133 186 173 123 171 162 176 121 176 178 180 190 190 107 250 316 307 245 299 161 257 271 303 320 64 215 178 180 180
334 331 328 160 240 268 320 307 187 286 240 102 123 138 155 217 111 114 173 72 116 142 194 263 202 218 216 158 186 16 150 60 73 239 251 60 282 272 258 324 70 82 194 179 176
330 322 301 269 293 322 310 245 144 230 1 56 71 39 197 182 147 144 175 185 182 164 208 248 241 236 204 245 178 182 211 251 217 207 264 69 263 270 272 298 246 243 198 189 181
328 320 207 232 316 338 256 106 181 264 260 337 6 24 171 144 199 129 159 186 196 125 147 239 206 194 156 213 225 199 202 217 235 212 55 154 243 249 232 301 231 236 203 188 186
327 335 213 299 277 250 186 173 220 206 330 333 304 131 115 152 180 192 179 199 199 191 199 180 254 286 222 165 203 154 198 51 119 80 254 272 266 264 264 234 178 163 189 181 168
334 328 21 330 173 193 163 207 219 237 311 296 40 351 123 33 161 184 179 179 208 199 213 179 272 222 274 153 87 253 140 171 159 194 221 184 273 268 234 220 198 177 184 163 150
322 111 2 57 266 96 198 206 230 249 351 18 101 83 62 57 64 157 167 94 220 152 207 162 233 221 268 202 219 159 181 73 118 296 234 220 230 222 251 239 227 155 157 163 144
335 76 8 306 114 2 164 183 221 300 339 39 35 341 59 50 70 125 153 123 25 149 161 184 173 221 236 120 24 208 208 186 242 189 161 307 253 150 225 253 235 157 169 124 118
50 44 35 300 136 160 256 177 251 160 356 65 72 50 30 36 61 174 137 127 46 178 169 173 203 241 197 179 156 222 192 187 127 142 195 239 253 166 232 232 193 182 158 133 135
321 115 55 58 37 107 134 144 180 33 29 286 26 52 58 26 50 333 334 309 331 74 168 152 168 235 267 329 90 178 192 189 197 182 165 233 274 279 222 214 182 180 160 147 153
11 72 2 149 118 74 130 318 115 118 43 23 100 69 69 166 319 254 33 322 298 51 92 183 224 207 259 247 253 241 184 189 209 165 233 172 211 266 337 240 198 176 162 158 160
28 354 81 88 322 185 355 75 134 99 290 80 85 352 209 205 269 142 359 297 348 336 69 27 209 185 273 264 219 232 222 201 232 184 269 235 259 268 56 139 172 175 171 169 162
30 112 288 17 112 192 152 155 133 323 182 309 23 326 287 106 310 290 266 265 275 329 324 280 223 190 252 347 144 226 229 207 207 191 195 204 249 353 82 200 166 164 175 163 158